NOAA 16 DEB, 42422

Orbit data source: Space-Track

NOAA 16 DEB, 42422 is space debris in SSO originally from a launch on Thu, 21 Sep 2000 UTC launched from the Air Force Western Test Range (AFWTR). Debris objects in space refer to the collection of defunct objects orbiting the Earth. Examples of debris include non-operational satellites, rocket bodies, and fragments generated from explosions, collisions, or faulty payload assembly.

Loading next visibility...
Identifier
42422, 2000-055TS
Orbit
SSO
Country
Flag of USUS
Related business
Manufacturer
Unknown
Mission
Spacecraft
Bus & Motor
Unknown
Mass
Unknown
Launch date (UTC)
2000-09-21 (26 years ago)
Launch vehicle
Unknown
Launch site
Air Force Western Test Range (AFWTR)
Object type
Payload
Rocket body
Debris
Shape & HBR
Unknown shape, 0.1 m
Radar Cross Section
Medium (>0.1 m² and <1 m²)

Expand to show TLE details & history
Last TLE update: 2 days ago

TLE from 2 days ago
0 NOAA 16 DEB
1 42422U 00055TS  26236.52249591  .00003662  00000-0  12892-2 0  9991
2 42422  98.7830 344.3801 0012889 100.2332 260.0306 14.35424906536811
Epoch: 2026-08-24T12:32Z
TLE epoch observation values (Epoch: 2026-08-24T12:32:23.646Z)
Latitude
-0.00012°
Longitude
-176.52139°
Altitude
778.196 km
Speed
7.464 km/s
True Right ascension
22h 57m 31s
True Declination
0° 00' 00"
Sunlit
Object was in full shadow at epoch
Visualization orbit readout
Latitude
Unknown
Longitude
Unknown
Altitude
Unknown
Speed
Unknown
Apparent Right ascension
Unknown
Apparent Declination
Unknown
Sunlit
N/A
Visualization observer readout
Local Sidereal Time
01:13:26
Azimuth
Unknown
Elevation
Unknown
Doppler factor
Unknown
Orbital elements
Apogee altitude
780.011 km
Perigee altitude
761.582 km
Semi-major axis
7,148.933 km
Eccentricity
0.00129
Inclination
98.783°
RAAN
344.3801°
Arg. of periapsis
100.2332°
True anomaly
259.88517°
Mean anomaly
260.0306°
Eccentric anomaly
259.95788°
Mean motion
3.59072 °/min
Orbital period
100.26 mins
BSTAR
0.0012892
Loading maneuver chart data...
Computing Atmospheric mass density...
Loading historical data...
Loading historical data...
Loading historical data...
Loading historical data...
Loading historical data...
Loading historical data...
Loading historical data...

Documentation

Showing up to 5 results
|